Theta_e
317 318 318 318 319 319 320 321 321 322 322 322 323 324 325 326 328 328 328 329 330 332 333 333 334 333 333 334 334 333 330 325 321 320 318 325 329 334 332 332 333 336 330 312 309 309 307 310 312 316 313 313 311 308 309 309 305 307 303 297 295 293 293 296 296 294 296 295 296 296 297 298 297 300 303 305 306 303 305 308 308 312 313 315 316 319 326 326
318 317 318 318 318 319 319 320 321 321 322 322 322 323 325 326 328 329 327 328 329 331 332 333 334 334 334 334 333 332 328 325 320 321 320 331 334 335 333 334 337 335 324 309 308 305 305 307 310 313 309 308 313 308 310 306 306 299 294 299 301 298 301 301 299 297 296 296 296 297 295 299 299 300 301 301 301 305 305 307 306 310 312 316 318 323 325 324
317 317 318 318 318 318 319 319 321 321 321 321 322 323 324 326 325 328 326 328 328 329 331 333 334 334 333 333 332 330 326 320 319 316 325 335 335 334 333 334 336 335 315 309 308 307 306 307 310 310 309 306 308 306 308 305 304 298 297 295 300 303 304 302 297 296 298 297 297 297 297 298 300 300 300 301 300 301 301 303 305 308 307 313 316 322 323 323
317 317 317 318 318 318 318 319 320 321 321 321 322 322 324 325 325 327 327 327 328 328 330 332 333 333 332 332 331 327 323 316 311 319 329 336 334 334 334 334 335 334 316 313 307 306 308 311 310 309 307 305 307 307 305 305 302 299 296 295 299 301 302 305 297 295 294 296 297 296 295 298 298 298 300 297 301 299 299 302 307 308 310 314 318 321 322 322
317 317 317 318 318 318 318 318 319 320 321 321 322 322 324 325 325 327 326 326 327 328 329 331 332 333 332 331 328 326 318 309 313 325 330 336 335 334 334 334 334 326 316 311 309 308 309 309 308 308 304 299 304 304 303 305 304 299 298 299 300 300 302 304 298 296 294 294 296 293 298 298 298 299 297 302 299 298 302 304 307 309 315 317 318 320 321 321
317 317 317 318 318 319 318 318 319 320 321 321 321 322 324 324 325 326 326 326 327 328 328 330 332 331 331 330 325 323 315 298 319 323 334 336 335 335 334 333 334 321 313 309 308 307 308 308 308 304 302 301 301 301 300 304 304 299 299 298 298 297 301 300 298 297 294 295 294 295 298 297 298 298 296 302 300 299 299 301 307 310 319 320 321 321 320 320
317 317 317 317 318 318 318 318 318 319 320 320 321 322 322 324 325 325 326 326 326 328 327 329 331 331 330 328 323 320 313 315 318 319 334 335 336 335 334 334 334 316 313 309 308 306 305 305 306 303 302 301 301 301 303 303 304 302 300 299 301 299 299 298 298 296 294 296 295 296 296 297 294 298 295 298 300 299 296 295 304 314 318 320 320 320 320 320
317 317 317 317 318 318 319 319 318 318 320 320 320 321 323 324 325 325 325 325 325 327 328 327 329 330 329 321 315 311 312 313 322 320 333 334 333 332 332 328 322 314 312 309 307 305 305 304 304 304 302 301 301 303 304 303 302 301 300 299 299 300 299 297 295 294 294 295 294 294 295 296 295 295 295 296 301 301 296 298 310 318 318 319 320 319 320 320
317 317 317 317 317 318 318 319 319 318 319 320 320 320 321 323 324 324 325 325 325 325 328 328 328 329 328 319 314 308 308 322 324 321 330 331 328 329 327 322 319 314 312 310 308 308 305 302 304 306 300 302 304 303 303 303 299 301 302 300 301 300 299 298 296 294 294 296 294 296 294 293 293 295 295 296 297 298 300 304 315 317 317 318 319 320 320 320
316 316 316 316 317 317 318 318 319 319 319 319 320 320 321 322 324 325 325 324 324 325 327 328 328 328 322 316 312 305 316 327 324 323 327 328 327 326 324 322 318 315 311 309 309 308 305 304 306 307 306 305 305 303 303 303 301 302 301 302 302 302 301 296 298 295 294 296 294 296 293 295 295 296 295 297 297 299 304 307 313 316 317 318 318 319 320 320
315 316 316 316 316 317 317 318 318 318 319 319 319 320 321 322 324 325 325 324 324 326 326 328 327 326 317 316 308 305 326 326 327 325 326 326 324 322 321 319 319 315 312 309 308 309 308 307 306 311 309 303 306 304 303 303 304 302 303 301 301 301 296 295 294 294 294 297 293 296 295 295 294 295 297 300 297 301 303 306 312 314 316 317 318 319 320 320
315 316 316 316 316 316 317 318 318 319 319 319 320 320 320 321 323 324 324 324 323 325 327 326 327 325 320 314 310 311 325 328 327 326 326 325 322 322 322 319 320 319 313 309 309 311 312 309 312 309 301 309 302 306 306 308 306 302 302 299 300 300 300 296 295 294 294 296 294 296 295 294 294 296 299 300 295 299 302 306 311 313 314 316 318 318 319 320
314 315 316 316 316 316 317 317 318 318 318 319 320 320 320 322 323 324 324 323 323 324 327 327 325 324 317 307 313 322 326 329 328 326 325 325 323 321 318 317 319 320 316 311 310 313 313 313 313 308 308 308 304 302 305 309 305 301 301 299 299 299 297 301 294 293 294 296 293 298 291 294 297 300 298 300 296 296 299 303 308 313 314 315 316 317 318 319
315 315 315 316 316 316 317 317 317 318 318 318 319 320 320 320 323 323 323 322 323 323 325 327 325 320 313 309 320 322 327 328 328 325 323 322 319 313 314 316 318 319 320 317 315 315 315 315 313 309 311 307 305 311 307 303 304 302 298 299 294 292 292 295 296 293 294 295 293 300 292 296 300 301 302 298 297 297 297 300 305 310 312 314 315 316 317 318
313 315 315 315 316 316 316 317 317 317 318 318 319 320 320 320 322 323 324 321 323 324 325 326 321 315 309 312 321 324 329 328 322 323 325 319 317 310 311 315 317 317 319 320 321 319 318 316 313 309 307 308 309 306 300 300 299 298 298 293 292 295 294 294 297 295 295 295 293 298 291 296 299 301 302 301 296 297 298 297 300 305 308 311 313 315 316 318
313 313 314 315 315 316 316 316 317 317 318 318 319 319 320 320 321 323 324 321 322 322 324 317 314 313 307 305 314 327 323 318 318 325 325 322 317 312 313 315 317 318 320 318 323 322 320 316 309 307 307 309 306 302 298 298 297 297 300 290 293 291 295 296 298 293 298 294 295 298 294 291 296 297 298 296 295 295 297 297 296 299 304 307 310 313 315 316
313 313 314 315 315 316 316 316 316 317 317 318 319 319 319 320 321 322 323 321 319 320 318 312 316 315 299 313 322 315 313 319 325 323 323 324 319 316 315 314 313 314 317 317 319 319 317 313 309 309 308 304 303 303 298 296 294 296 297 293 292 295 293 293 296 297 293 295 293 293 293 296 296 296 296 296 295 293 295 297 296 296 298 302 306 309 312 314
313 313 314 314 315 315 316 316 316 317 317 318 317 317 316 318 321 322 321 318 316 317 318 320 314 307 303 313 305 310 318 318 320 321 321 323 321 317 315 312 312 313 314 312 315 312 312 306 308 302 303 302 303 302 297 292 296 295 295 295 292 293 294 296 296 298 293 293 293 292 292 295 297 299 300 297 293 294 295 296 297 297 297 298 300 304 307 309
312 313 314 314 314 315 315 316 316 316 317 318 318 319 319 317 316 314 311 312 306 302 297 301 302 294 292 304 313 316 317 320 322 320 315 318 320 319 317 317 314 310 305 305 304 308 307 305 304 301 299 300 300 302 300 300 302 299 298 297 294 294 293 295 298 298 295 292 292 291 293 294 295 297 299 299 295 294 295 294 295 295 296 297 298 299 302 305
312 312 313 314 314 314 315 315 316 316 317 314 312 309 307 301 301 301 305 308 304 303 306 308 309 309 309 309 310 317 320 322 314 316 317 320 318 315 313 313 310 309 304 300 303 306 308 300 297 297 300 302 303 304 303 302 304 301 299 298 298 296 294 296 298 298 296 293 292 293 294 294 295 297 299 299 296 295 295 295 294 295 296 296 296 297 300 301
312 313 313 314 314 314 314 315 315 316 317 312 310 304 295 296 293 291 299 303 308 309 306 307 309 307 308 313 314 314 311 311 316 313 315 322 318 314 308 309 305 301 302 304 302 306 306 297 297 301 303 304 304 304 303 303 303 300 298 297 297 296 297 297 299 299 295 295 293 293 292 293 295 297 298 298 295 296 297 297 298 297 296 296 296 297 297 300
311 312 313 313 314 314 315 314 315 316 316 311 307 301 304 304 307 309 305 297 305 308 308 306 307 309 310 312 316 318 315 308 309 312 316 319 312 308 307 307 302 298 302 302 303 300 297 295 299 302 305 306 305 304 303 303 302 300 298 296 295 295 295 298 296 294 295 295 295 292 291 294 295 297 298 298 297 298 299 299 300 300 299 298 296 297 298 297
311 312 312 313 313 314 314 315 315 315 310 306 302 305 304 308 309 311 306 301 300 307 306 304 303 306 308 313 315 317 308 305 303 308 310 315 310 310 307 304 302 301 301 302 298 296 293 297 301 304 305 304 304 304 303 302 302 299 297 295 295 294 296 292 297 292 295 295 290 289 290 295 296 296 297 299 299 299 300 300 300 301 301 300 299 299 298 298
311 312 312 313 313 313 315 314 315 312 307 306 306 305 311 310 310 309 303 293 292 301 305 303 304 305 306 307 315 313 308 307 307 304 314 312 306 310 307 305 302 300 298 301 301 298 296 299 305 304 304 305 302 303 302 300 298 300 300 298 294 294 297 297 295 290 293 294 290 290 292 295 295 295 297 300 298 299 301 300 300 301 300 302 302 300 299 300
311 312 313 313 313 314 314 314 307 305 308 307 306 310 310 310 311 308 300 292 293 293 305 303 304 304 307 314 314 309 309 310 309 311 313 313 308 307 304 309 304 298 299 301 301 299 297 299 305 302 302 304 303 301 302 301 298 299 301 300 297 296 296 295 290 292 291 291 292 293 286 292 292 296 298 302 293 295 297 298 300 302 302 300 300 301 301 300
311 312 313 313 313 314 315 303 303 308 305 301 306 311 306 309 309 307 297 283 282 289 299 291 306 299 312 303 308 310 311 303 311 311 313 314 316 309 307 302 305 296 300 300 299 299 299 300 302 300 302 302 302 301 303 303 299 297 299 303 300 297 296 293 289 293 286 287 291 293 291 290 289 290 292 294 294 297 296 296 298 299 300 300 301 302 302 302
311 312 313 313 313 314 303 297 307 307 299 302 309 311 308 309 309 305 293 283 280 292 288 300 300 300 309 305 307 311 292 298 311 312 311 315 309 315 303 301 304 303 303 302 298 295 300 299 300 301 301 300 299 298 302 303 299 296 302 303 301 296 293 292 291 294 287 289 290 288 290 288 291 296 294 292 291 294 294 296 297 298 299 299 300 302 303 304
312 312 313 313 313 313 305 308 305 301 302 307 311 309 309 308 306 303 290 274 274 296 290 293 298 308 306 307 307 304 303 309 301 306 313 314 314 308 306 301 300 300 301 301 290 300 301 297 299 298 299 298 297 301 302 304 300 298 302 304 301 299 295 294 292 289 289 290 289 285 287 288 288 291 287 290 294 296 297 299 299 298 298 300 301 302 302 302
312 312 312 313 314 314 310 306 305 301 307 311 310 310 309 308 303 292 282 273 291 289 307 295 309 301 302 305 301 303 302 307 300 306 312 313 314 308 301 303 304 303 303 301 295 296 300 301 301 301 299 296 299 300 303 304 300 298 301 301 299 298 295 296 289 290 288 288 288 287 288 288 290 292 289 289 290 294 298 300 301 301 300 299 299 300 301 302
312 312 313 313 311 310 308 308 304 307 310 310 310 309 307 303 294 283 278 271 293 281 293 298 297 293 300 295 296 299 296 300 302 307 309 306 308 310 306 311 304 301 299 302 295 296 301 304 305 302 299 299 298 302 304 303 298 302 303 298 294 292 290 288 288 288 288 286 288 291 289 291 287 295 294 291 292 298 299 296 296 296 298 299 300 300 301 301
312 312 312 313 306 306 307 301 306 310 310 310 309 306 302 295 285 278 273 279 289 288 299 295 291 300 295 293 291 297 297 298 300 304 301 306 303 305 304 301 302 300 298 297 295 299 300 301 301 301 305 300 303 296 298 301 300 301 293 292 295 290 291 288 286 287 286 286 289 291 288 289 286 289 294 298 296 295 299 299 299 297 298 300 302 301 301 300
311 312 312 310 309 310 302 300 308 310 309 309 306 300 294 281 286 277 276 294 280 287 288 288 295 294 293 295 294 295 292 295 298 302 299 299 298 298 298 293 297 288 288 291 290 295 295 297 300 301 303 303 299 298 295 299 299 298 296 297 292 286 287 284 286 283 284 286 285 283 287 285 288 292 289 291 295 296 296 297 299 298 298 299 299 298 299 298
311 312 312 311 310 307 307 309 310 309 309 307 302 298 287 280 273 282 285 284 274 291 287 295 292 293 292 292 291 294 298 291 297 298 302 301 299 298 301 299 299 295 286 291 291 292 292 298 299 298 301 304 302 295 291 292 297 296 296 294 290 283 283 284 285 284 283 284 284 285 286 287 292 292 299 300 300 299 299 298 298 297 298 297 297 296 295 294
312 312 309 309 309 309 309 309 310 309 306 305 299 291 286 278 277 290 283 280 278 289 294 291 294 293 292 288 290 294 291 295 295 295 300 297 298 294 297 300 300 296 294 292 289 290 285 286 294 298 295 304 302 300 298 296 297 297 301 298 293 291 285 283 284 283 285 283 283 284 288 284 286 289 291 295 299 298 296 296 295 296 297 297 295 293 292 292
313 311 309 308 309 309 308 309 310 309 306 301 293 287 279 277 285 283 282 282 283 291 290 294 291 290 288 290 292 294 295 290 295 294 296 296 293 294 294 295 299 300 296 289 290 290 290 290 297 303 300 303 300 303 303 299 297 298 296 296 292 291 286 284 278 281 276 278 277 279 287 287 291 291 293 294 291 292 293 292 291 293 293 291 293 294 295 296
309 306 308 305 306 307 309 310 309 308 303 296 287 282 280 284 279 285 285 289 288 289 291 292 291 287 287 287 291 291 297 293 294 294 293 296 297 294 297 298 297 300 295 290 293 287 289 288 298 300 301 302 302 301 300 303 289 294 295 291 295 292 286 279 278 277 278 276 280 279 282 287 288 296 300 300 297 296 294 292 290 291 291 289 292 294 294 295
303 303 299 302 303 307 309 309 309 306 301 293 285 281 286 283 284 287 292 291 289 294 292 285 286 285 284 284 286 289 292 295 294 292 287 296 294 297 297 298 301 300 301 298 292 295 289 289 297 297 296 302 306 304 302 304 301 296 290 295 294 296 291 286 280 270 270 277 280 279 285 285 282 288 288 296 298 300 300 299 296 291 288 289 292 293 294 295
300 299 300 300 304 308 309 310 308 304 298 290 283 287 282 285 287 287 287 289 289 294 290 287 287 290 285 285 285 288 292 290 291 292 287 293 287 301 298 297 301 300 302 303 295 293 295 285 288 296 298 299 301 301 297 298 295 299 297 300 295 287 288 287 285 277 275 276 276 274 280 279 286 290 285 287 291 295 297 297 292 290 288 289 290 292 292 292
299 297 290 300 307 308 308 309 306 300 293 286 285 285 282 282 286 284 287 290 291 292 288 289 286 284 285 286 287 290 292 287 293 290 288 290 286 298 298 300 298 302 302 302 297 293 296 288 288 292 294 297 300 299 289 295 295 294 297 296 295 294 290 288 288 284 284 277 271 280 276 283 286 289 292 292 289 291 294 291 291 294 294 293 291 292 293 293
294 289 286 301 307 308 308 307 301 297 290 284 286 284 285 283 284 289 288 289 287 288 286 288 283 287 286 287 289 287 292 291 292 291 292 293 291 300 298 303 299 300 302 302 298 298 292 292 286 289 293 298 291 296 294 296 291 290 294 291 291 292 291 292 288 286 284 282 278 278 278 284 284 289 293 296 296 294 293 293 294 292 291 292 292 293 293 294
296 290 289 303 305 308 307 301 293 288 287 285 286 284 282 282 284 286 289 288 288 290 287 286 286 287 285 286 287 290 291 292 292 291 292 292 293 288 299 301 302 299 302 300 297 296 289 290 287 287 289 291 294 300 300 299 298 295 295 293 294 292 288 287 285 284 278 282 276 274 282 288 281 289 295 295 298 299 300 297 293 291 291 291 292 292 292 293
291 284 287 302 304 306 298 286 285 287 286 284 282 285 285 289 283 286 286 289 288 286 288 286 283 283 284 287 287 287 288 290 291 291 292 291 295 295 299 304 302 303 299 295 295 299 295 291 290 287 289 293 296 297 291 298 300 298 298 294 297 294 292 289 285 285 283 283 277 274 274 286 289 290 293 294 295 296 293 291 293 291 292 292 292 291 290 291
289 286 297 302 302 302 293 286 287 286 284 286 289 287 288 286 285 287 286 286 286 286 284 284 284 283 283 283 282 285 289 289 291 290 292 293 295 298 300 303 303 302 302 298 300 295 294 289 287 286 289 290 291 292 293 290 298 295 294 292 295 293 295 293 291 287 286 284 285 283 280 289 288 286 291 289 288 286 285 286 291 291 291 292 291 290 290 289
288 288 290 299 301 299 289 281 281 283 284 286 286 286 288 287 286 285 284 285 285 285 284 284 286 288 283 285 283 287 290 286 291 292 291 294 293 301 301 302 304 300 299 298 296 299 292 289 291 285 285 285 287 291 290 290 293 293 292 293 297 297 296 289 285 284 284 287 288 287 282 289 289 284 285 285 286 288 290 291 287 289 288 289 291 290 288 288
289 291 292 295 299 295 286 286 285 284 284 284 284 282 284 284 288 287 286 284 288 287 288 285 287 287 284 285 283 284 283 284 287 292 291 293 294 300 300 303 304 301 303 303 300 302 294 292 290 284 280 279 279 280 283 286 290 293 295 293 295 295 294 289 289 282 285 288 287 286 286 293 286 287 286 285 284 286 287 287 285 286 288 290 290 290 289 288
287 280 285 286 290 289 288 290 290 286 285 284 282 284 286 283 285 288 288 286 288 288 288 288 287 288 286 287 284 284 285 285 286 286 290 289 290 291 299 302 303 302 301 301 299 300 288 291 292 290 288 286 288 291 295 296 293 290 291 292 293 295 296 295 293 289 286 289 287 289 291 290 285 288 286 286 285 286 288 288 289 288 287 287 287 288 289 290
290 284 283 281 286 287 286 288 288 288 284 287 282 284 281 283 284 284 288 283 286 286 287 286 286 287 285 286 283 285 284 284 284 289 289 290 288 287 292 301 302 302 300 299 299 297 287 288 292 291 292 293 293 293 296 296 292 293 292 291 293 293 294 292 290 288 293 289 285 290 291 290 287 285 284 285 286 284 285 286 287 287 287 288 289 287 290 289
283 286 289 291 284 281 283 284 288 287 287 287 284 286 283 282 282 281 286 288 289 289 285 287 286 287 288 286 286 283 284 284 285 285 286 285 288 287 291 295 299 300 300 297 299 297 291 289 293 292 291 293 292 294 296 295 295 294 294 293 291 293 293 290 291 294 293 288 286 291 291 288 290 289 289 289 288 288 289 289 288 288 287 286 287 289 290 290
288 287 287 290 283 284 286 287 288 287 286 286 284 284 282 282 281 282 282 284 285 285 288 283 285 287 287 288 286 284 285 283 281 284 285 286 287 288 287 292 296 301 300 296 296 296 293 290 292 293 291 292 291 293 295 294 294 294 294 294 294 293 293 293 293 294 294 291 292 292 290 288 291 291 294 295 292 289 287 285 285 287 287 288 288 288 289 290
285 286 282 286 288 287 287 287 287 286 284 287 282 283 283 283 282 284 285 283 280 283 289 285 286 287 288 288 286 285 286 289 287 284 285 288 287 287 288 290 289 296 299 295 294 295 294 289 294 291 289 289 290 291 293 294 293 291 293 294 294 294 293 294 294 294 294 293 292 291 290 290 294 294 295 297 297 291 286 288 288 287 286 286 288 290 290 291
287 287 290 286 283 285 287 286 286 285 282 282 282 284 284 285 283 285 284 287 284 283 285 284 286 287 289 289 287 285 286 286 286 288 289 289 286 288 288 287 291 293 296 294 293 291 294 289 294 290 287 287 289 290 291 293 292 291 291 292 292 292 290 292 291 294 292 291 292 292 289 290 296 296 294 294 295 297 296 294 288 290 289 286 287 289 290 291
289 290 291 289 283 287 284 286 286 284 279 282 283 284 285 285 287 286 282 286 287 287 287 288 287 287 285 287 286 286 288 288 288 288 290 290 292 291 291 289 290 290 291 294 295 292 292 291 289 289 286 286 288 290 289 289 289 287 288 292 293 294 294 295 295 296 295 295 291 289 290 296 298 293 293 292 294 295 297 298 296 293 291 290 290 290 290 290
Wind_Speed
18 19 18 18 18 19 19 20 21 20 20 20 19 19 19 19 18 19 19 17 17 16 12 16 16 14 11 11 11 10 11 7 6 9 10 12 11 17 4 13 8 5 7 3 3 5 3 3 3 1 2 2 1 3 1 2 1 2 2 3 3 4 3 4 4 7 1 1 3 4 5 6 2 1 1 1 5 3 1 1 4 1 1 2 3 1 10 10
19 18 19 18 19 19 19 20 20 20 20 20 20 19 20 20 18 18 19 18 18 16 15 13 16 14 12 12 11 11 11 8 10 14 20 11 16 13 9 6 3 8 4 4 7 6 6 5 4 3 4 2 2 2 0 1 1 3 1 2 7 5 5 6 3 5 2 5 3 3 3 5 5 7 2 3 1 0 1 1 2 2 2 4 2 6 11 12
19 19 19 19 19 19 20 20 20 20 21 20 20 19 19 18 18 17 21 19 17 17 17 15 13 15 14 13 14 11 8 1 5 17 20 17 12 11 14 12 5 8 7 5 6 7 8 8 5 5 0 3 2 3 1 1 1 2 5 5 6 4 3 5 4 3 6 2 3 6 3 3 2 4 1 3 5 0 6 5 1 2 4 0 4 8 10 11
19 19 19 19 19 20 20 20 20 20 21 21 20 19 18 17 17 17 18 19 17 18 17 14 13 13 14 13 18 12 7 1 9 8 13 18 14 17 18 16 9 7 4 2 2 5 3 4 4 5 2 3 1 1 4 2 3 1 2 5 5 4 2 4 7 3 4 4 3 4 2 3 1 3 3 4 5 4 6 6 9 10 7 6 6 9 10 11
20 19 19 19 19 19 20 20 20 20 20 21 20 20 18 17 17 16 17 20 17 17 16 13 12 12 13 14 18 12 8 4 7 12 13 18 19 18 18 17 11 5 5 2 5 3 5 6 4 2 3 3 0 1 2 3 2 4 6 3 2 1 2 4 3 5 4 3 7 4 6 4 2 1 3 10 8 8 10 10 9 7 9 11 11 10 9 11
20 19 19 19 19 19 20 20 21 20 20 21 21 20 19 17 16 17 17 20 20 16 16 14 12 11 12 15 12 9 9 14 2 5 18 20 21 19 18 17 13 6 4 3 5 4 7 0 6 4 2 3 5 8 3 4 4 4 2 2 3 3 3 0 3 4 5 3 5 5 4 4 5 1 4 9 9 6 6 4 9 6 12 13 11 12 11 11
20 19 19 19 18 19 19 19 20 20 19 21 20 21 20 19 16 17 17 19 19 16 16 14 12 12 12 14 9 12 13 13 2 7 12 24 23 20 17 16 11 6 5 4 4 6 6 5 5 5 4 4 4 4 3 5 1 3 4 0 4 4 4 2 1 4 3 10 6 4 3 4 4 4 1 5 8 6 2 3 6 6 4 8 11 13 16 16
20 19 18 18 17 17 18 18 19 20 20 20 21 21 20 19 17 18 17 20 22 17 16 16 13 12 15 10 9 7 10 16 13 2 17 21 22 20 17 8 11 8 7 9 7 8 8 10 11 4 5 10 4 9 1 4 2 6 4 4 2 1 4 2 1 1 1 3 2 6 4 5 7 4 4 6 11 8 4 0 5 8 8 7 11 14 12 12
20 19 19 18 17 17 17 18 18 19 20 21 20 20 21 19 19 18 17 18 21 18 15 15 15 11 17 8 13 11 17 12 6 4 8 17 20 19 15 8 11 12 7 5 6 7 9 8 7 7 5 7 3 8 3 7 6 5 9 4 1 3 3 2 1 2 3 1 2 4 4 3 4 1 2 8 7 6 2 3 5 8 9 10 11 13 13 13
20 19 19 19 18 18 18 18 18 19 20 21 20 19 21 20 19 18 17 19 20 19 16 14 13 13 10 6 6 16 17 11 3 6 9 12 15 17 15 12 14 11 9 8 5 6 11 6 11 4 5 2 5 4 4 5 5 5 4 5 5 3 1 0 6 5 3 1 4 5 4 4 1 4 7 3 7 4 4 4 5 10 11 11 10 10 11 13
21 21 20 19 19 19 19 19 18 19 20 20 20 19 20 20 19 19 18 19 22 19 17 15 13 13 10 10 12 21 7 16 9 1 12 13 14 17 17 12 15 13 12 5 7 7 5 9 5 4 1 5 5 2 5 4 3 4 7 4 3 3 0 0 1 3 1 2 4 5 5 1 2 1 9 4 3 6 7 5 7 8 10 12 12 12 12 12
22 21 20 19 19 19 20 20 19 19 20 20 19 19 20 20 20 18 18 18 21 19 17 15 18 10 8 8 13 15 7 10 9 2 10 14 15 18 18 15 16 15 15 12 7 5 6 7 8 7 6 4 4 3 4 3 3 1 5 3 5 2 4 2 5 4 4 3 4 2 2 4 2 11 7 5 3 5 7 8 8 10 9 10 11 11 9 13
22 21 21 19 19 19 19 20 20 20 20 20 19 17 18 20 20 18 17 17 20 20 17 16 14 11 11 14 15 3 4 7 10 4 2 7 7 6 8 11 15 14 16 13 10 5 4 7 8 10 1 5 4 5 1 4 1 4 1 4 0 1 3 7 1 2 6 2 5 4 7 8 12 16 3 6 6 4 5 6 8 9 9 9 9 10 11 8
20 20 20 19 19 19 19 19 20 21 21 21 19 17 18 19 19 18 17 18 19 22 16 16 11 10 13 15 1 4 6 8 9 7 8 6 10 3 5 3 3 3 3 5 6 2 3 0 7 5 2 4 3 1 3 2 1 7 2 1 4 3 5 2 5 5 6 2 6 2 8 9 10 4 5 5 6 9 10 10 9 9 9 9 10 10 11 12
21 19 19 19 19 18 18 19 20 21 22 21 20 17 17 20 20 18 17 17 20 18 16 13 10 9 14 7 5 4 6 12 14 11 9 12 10 4 6 7 6 6 7 7 6 3 3 6 7 3 2 1 3 3 1 1 0 2 5 7 0 7 4 3 1 9 9 0 4 4 5 13 10 6 7 6 7 9 12 10 10 9 9 10 9 11 11 13
20 20 20 19 19 18 18 18 19 21 22 21 20 17 16 18 19 18 17 17 22 19 11 10 12 13 5 11 4 9 3 15 19 19 9 13 12 11 8 9 8 8 10 3 6 7 5 2 3 4 3 2 4 6 4 2 3 3 10 1 8 5 6 2 4 6 8 4 1 9 8 2 3 3 1 1 5 5 8 8 8 9 10 9 9 10 10 10
19 20 20 19 19 19 19 19 18 20 20 20 18 16 15 16 19 18 15 19 15 9 10 6 11 13 10 1 4 10 8 11 10 12 11 9 15 11 14 13 6 8 9 6 5 9 3 4 3 1 2 5 4 6 6 9 6 8 4 5 3 11 4 5 3 2 4 6 6 5 6 12 3 5 3 3 4 5 7 9 7 7 7 8 8 8 9 10
20 20 20 19 20 19 19 19 19 20 20 18 17 12 14 18 18 14 11 12 5 7 7 4 6 9 14 5 6 11 9 9 11 15 18 10 11 17 14 7 7 13 10 5 2 11 1 2 0 5 3 4 8 12 15 19 16 8 7 6 2 0 5 6 6 3 7 4 6 5 10 16 11 9 11 3 2 5 8 8 9 9 9 9 9 9 10 11
20 20 19 19 20 19 19 19 20 20 19 18 17 15 12 14 7 3 7 6 10 8 11 12 14 18 6 19 8 3 6 8 12 17 10 15 7 14 8 8 18 17 9 10 3 9 1 4 1 3 13 12 17 20 20 5 8 14 10 7 4 9 8 9 6 1 12 6 7 6 12 15 11 12 14 9 5 5 8 4 6 7 7 8 8 9 10 11
20 19 20 20 19 20 19 19 21 21 21 14 9 7 4 8 7 7 4 11 16 11 5 13 16 11 9 2 20 3 7 4 14 8 15 13 15 14 13 15 9 12 14 13 8 12 6 14 14 17 19 19 15 16 11 2 6 7 6 6 10 10 5 1 3 2 5 2 10 13 15 12 10 12 14 12 3 5 7 7 7 8 9 9 9 10 11 12
20 20 20 19 19 20 21 21 21 22 22 11 11 11 12 14 13 11 10 8 15 17 8 2 22 22 5 7 9 19 11 3 6 15 15 13 13 20 12 14 14 10 14 15 14 5 8 12 18 21 16 13 12 5 4 4 8 11 9 9 11 9 11 5 6 1 3 5 4 7 9 12 15 14 14 7 3 10 10 11 12 12 11 10 10 11 11 14
21 20 19 19 19 20 20 22 22 21 22 10 11 13 6 19 7 5 11 12 19 20 12 4 2 14 3 2 7 11 9 6 6 13 7 9 15 18 8 14 19 17 10 12 12 11 12 18 23 18 9 8 8 7 4 9 8 10 10 9 8 9 0 1 1 0 3 4 9 1 6 13 13 13 13 10 11 9 9 12 14 12 13 11 10 10 11 8
20 20 19 19 19 20 20 21 22 21 11 14 15 17 16 10 4 4 4 2 8 15 17 4 5 9 5 1 3 2 17 15 11 10 14 9 14 15 14 13 17 12 12 16 18 16 15 20 21 11 12 12 9 9 6 2 5 8 6 8 12 4 7 6 3 2 4 7 1 1 5 12 7 8 14 15 10 10 11 12 13 11 12 12 12 12 12 13
20 19 19 18 18 21 21 22 20 15 15 16 14 19 9 8 8 11 8 5 3 12 12 4 2 3 6 10 5 8 12 9 13 20 9 14 16 7 12 17 16 13 15 20 21 19 17 4 14 16 12 13 14 11 10 6 7 2 8 8 4 6 6 4 4 1 1 1 2 2 8 12 7 10 10 11 7 9 13 10 11 12 10 11 9 8 9 12
19 18 18 17 19 20 21 19 12 12 13 15 17 16 7 6 10 11 10 1 2 4 7 6 4 2 3 3 4 13 7 3 12 16 16 18 14 6 10 8 10 14 17 22 16 14 8 4 17 18 16 14 13 12 15 11 8 5 5 6 4 5 5 3 2 5 1 3 3 3 3 11 2 11 15 10 2 7 8 9 15 15 12 10 12 14 11 11
18 18 18 18 19 20 19 11 10 12 15 17 14 13 6 9 11 8 7 2 7 3 5 15 5 9 7 3 3 7 7 11 7 10 13 17 15 16 9 8 8 18 20 19 15 6 8 6 18 15 15 16 16 14 13 11 11 10 8 8 5 5 5 5 4 3 4 6 2 2 10 11 1 5 7 7 5 14 4 9 12 10 11 9 12 12 14 15
18 19 19 19 21 20 12 9 8 12 15 14 13 11 11 8 11 10 5 4 9 7 8 2 11 3 8 6 7 11 14 10 6 5 12 10 18 2 14 8 4 3 8 5 1 9 8 9 14 16 18 16 13 14 14 18 12 9 7 11 5 5 4 4 5 7 4 1 2 0 3 6 14 10 5 2 3 9 7 13 12 12 10 12 12 14 14 14
19 20 20 21 23 22 10 4 10 17 19 12 15 14 11 11 7 7 4 7 10 11 8 6 4 2 2 9 13 10 6 22 9 14 13 12 8 4 7 18 16 16 14 13 18 9 21 17 21 20 18 16 18 18 11 13 9 2 7 10 6 5 3 4 3 2 1 1 7 3 0 1 10 5 2 1 7 11 15 16 12 10 11 13 14 15 13 13
19 19 19 21 23 27 14 6 11 17 12 9 14 14 12 9 11 11 6 4 2 6 3 8 2 3 6 11 9 11 5 7 10 14 13 10 4 4 10 14 12 13 15 18 18 4 4 14 18 18 15 15 6 5 12 15 12 2 4 9 7 7 6 4 3 2 2 1 11 7 5 7 14 7 5 1 3 12 16 15 14 12 10 11 11 11 13 14
19 19 20 20 17 16 13 8 9 6 9 14 16 14 11 6 11 11 12 11 3 7 7 2 14 11 9 13 8 12 11 2 4 12 16 13 12 4 4 3 9 11 14 13 2 4 5 7 10 11 12 6 7 8 11 10 3 8 10 9 6 6 4 3 4 2 1 5 14 7 10 9 11 13 11 9 11 15 11 5 6 4 6 10 9 12 13 12
19 19 20 21 13 9 9 11 12 10 15 13 14 18 12 6 12 12 16 4 3 3 5 11 13 19 18 18 13 13 15 11 4 15 10 11 12 5 7 5 3 6 9 12 7 6 9 7 9 4 10 4 13 5 3 7 9 10 3 6 8 4 5 5 3 2 2 10 3 12 12 9 13 7 5 11 5 7 11 14 9 7 10 12 12 10 10 9
18 19 22 17 10 8 14 14 14 14 19 19 19 15 13 9 5 16 9 5 9 11 16 9 12 15 19 13 12 15 12 7 7 12 17 16 14 12 15 12 11 9 12 14 8 5 9 14 7 6 7 20 11 13 1 8 8 7 10 10 10 3 3 4 2 2 8 11 0 3 9 2 22 8 3 4 11 8 8 7 7 9 12 12 11 10 9 6
19 21 22 16 12 11 15 5 13 10 16 25 18 13 10 10 16 9 5 10 4 13 7 14 14 17 20 19 21 13 11 13 12 9 17 17 19 17 18 19 20 15 14 13 10 13 5 6 10 5 6 9 17 15 7 8 10 10 13 12 11 6 7 10 9 1 3 2 2 3 0 9 8 4 14 18 14 12 10 11 12 8 9 10 9 8 6 6
21 19 13 11 13 13 10 12 15 20 19 17 16 15 9 11 7 12 6 3 2 4 13 11 15 15 19 21 21 16 11 12 9 9 12 16 18 17 14 16 20 11 1 16 15 17 11 11 13 17 11 14 17 16 20 14 17 16 10 14 11 11 5 13 8 13 10 4 1 3 6 9 6 6 1 7 8 8 7 8 6 8 11 10 7 6 7 7
18 16 10 9 12 11 10 13 17 24 18 18 15 15 20 11 6 17 9 6 3 4 10 12 16 17 15 15 16 17 15 11 12 9 9 15 18 14 18 18 18 9 6 15 4 5 16 3 10 22 8 22 19 14 15 12 8 7 4 4 5 12 1 3 1 1 2 3 1 3 8 2 7 4 7 8 6 8 7 8 6 10 8 6 8 9 10 10
14 9 9 7 11 10 15 15 19 22 19 16 13 12 17 10 6 6 9 6 4 9 11 13 10 15 14 15 13 15 15 8 14 12 10 10 15 18 17 14 21 22 16 14 7 8 4 11 13 7 9 20 16 11 8 18 12 9 6 13 9 5 9 4 3 2 2 4 9 3 8 7 8 12 15 15 7 10 8 9 7 10 9 6 9 9 9 10
8 6 10 9 12 14 17 17 17 19 16 14 10 11 11 1 2 4 7 14 6 14 16 19 11 13 14 14 12 19 16 7 8 11 5 4 9 18 19 13 17 23 21 16 9 3 18 11 14 17 16 18 20 17 14 18 6 10 11 9 4 4 5 4 4 3 1 5 8 4 15 6 4 14 1 10 15 18 15 15 13 7 4 7 11 9 10 11
9 7 4 13 12 16 17 18 20 16 16 12 11 8 3 5 1 2 1 6 6 14 12 13 5 13 13 14 15 16 14 17 12 11 9 10 3 8 17 13 17 20 21 11 9 7 5 5 2 9 14 8 5 11 5 1 4 11 15 10 11 5 8 1 4 4 3 6 6 4 3 4 10 14 1 2 10 14 16 14 6 7 6 9 9 10 10 8
6 8 4 6 12 15 17 20 18 15 16 11 12 11 2 1 0 0 1 1 3 9 13 8 6 4 5 15 10 15 20 19 16 11 9 7 4 8 15 12 16 21 20 16 11 3 7 6 3 2 5 8 10 13 14 11 2 5 8 8 1 2 3 7 9 1 3 7 3 8 4 12 11 9 11 10 7 10 11 6 9 12 11 10 9 9 9 9
7 4 4 4 13 16 17 20 14 15 11 18 15 4 4 3 3 1 3 1 3 7 4 9 1 13 8 11 15 14 15 20 19 14 12 5 8 4 15 12 12 20 21 16 8 5 7 1 8 2 3 13 11 10 16 19 16 4 8 7 3 5 1 2 1 7 6 6 9 9 9 11 7 8 13 17 13 10 10 12 10 9 6 8 9 10 9 9
6 3 3 2 9 16 17 13 12 15 11 3 3 4 3 4 3 1 2 5 2 3 3 6 7 10 6 6 10 7 10 16 16 14 11 7 13 6 10 13 11 20 17 16 10 5 3 4 11 6 7 13 12 15 24 26 23 20 20 19 19 18 11 14 12 2 3 6 8 6 18 12 2 6 12 14 17 19 18 13 7 6 7 8 10 9 7 7
10 5 5 5 6 18 16 9 3 3 3 9 8 4 5 5 4 2 0 2 3 3 3 6 3 4 4 6 5 7 6 12 14 11 9 13 10 7 12 20 14 18 17 14 13 7 6 3 7 11 10 13 10 5 5 2 10 11 14 13 14 8 5 7 13 8 0 5 3 3 3 15 6 9 10 8 11 13 9 3 7 4 8 9 9 7 5 6
7 3 3 7 4 13 13 8 5 6 3 5 8 7 4 4 4 3 2 2 1 1 3 3 4 5 3 3 3 3 8 9 17 17 6 10 13 14 6 25 19 16 18 12 13 4 8 4 8 4 4 3 2 3 3 2 9 7 6 2 10 13 15 13 9 3 8 2 6 5 7 18 1 5 8 6 4 3 4 3 6 5 5 7 6 6 7 6
4 7 3 4 3 4 11 11 11 7 7 4 5 7 2 4 3 4 1 1 1 2 4 4 2 2 4 3 2 7 9 7 7 15 13 10 8 12 11 22 22 15 19 13 15 11 8 5 13 9 5 3 4 3 2 5 2 8 8 7 12 12 15 4 5 1 4 10 11 7 17 21 1 1 4 3 5 7 8 8 5 6 5 6 6 6 5 5
6 4 5 1 2 3 7 1 13 11 10 10 8 8 6 5 4 3 4 2 1 2 3 1 3 4 5 3 4 2 3 2 4 8 2 7 6 11 10 21 24 16 20 14 17 14 13 11 15 14 14 10 11 15 15 11 16 9 11 14 14 18 18 9 16 5 12 11 13 11 13 20 1 1 1 2 4 6 8 9 4 6 6 6 7 7 4 5
7 9 3 3 2 2 3 2 4 12 13 12 9 3 5 7 3 3 4 4 0 2 4 3 2 5 3 4 4 4 3 5 1 3 7 5 4 2 8 18 23 16 21 17 10 8 4 4 12 15 21 22 24 26 28 26 18 20 22 24 24 24 27 22 15 16 20 16 16 19 23 16 5 4 1 3 3 6 6 5 5 4 6 7 5 6 5 6
2 7 8 6 4 2 4 2 9 7 10 9 9 5 4 6 5 3 3 3 2 2 2 2 3 6 2 6 3 5 3 4 6 6 11 13 3 1 5 18 19 23 24 14 13 8 2 6 15 15 20 20 11 2 6 11 13 16 20 25 24 24 24 24 19 22 18 16 22 14 24 23 9 2 3 5 6 5 6 6 7 5 4 5 6 5 4 2
4 1 4 2 3 9 9 6 10 9 7 5 5 2 8 9 3 5 2 3 4 1 4 2 2 0 9 9 8 6 6 3 1 4 2 2 4 1 3 4 16 22 20 7 12 13 9 12 17 17 20 19 5 7 12 17 21 22 25 22 24 23 22 25 25 22 20 17 18 18 21 17 14 6 7 8 7 7 6 5 5 4 3 3 3 3 5 5
1 4 3 1 4 1 4 13 15 13 11 8 4 6 6 9 8 3 4 3 2 1 0 5 6 4 5 4 4 3 7 6 2 3 3 4 5 5 4 2 7 13 18 9 9 3 5 12 14 16 18 17 8 7 12 17 15 17 19 21 20 21 22 22 22 25 24 18 17 23 14 16 13 11 13 12 7 8 5 2 2 1 3 4 3 4 5 6
6 8 4 2 7 9 12 10 9 12 10 6 7 4 6 5 9 4 3 3 4 0 1 4 6 4 3 4 3 7 9 7 8 10 5 5 5 1 3 2 4 7 12 12 7 6 10 11 14 10 12 13 9 5 8 14 15 18 17 18 19 17 16 19 20 21 18 14 14 14 16 19 14 12 17 15 12 4 1 3 4 5 4 4 5 7 7 7
1 2 4 13 11 6 9 8 9 9 7 2 7 4 6 9 10 5 5 4 2 6 3 8 7 6 3 4 2 2 1 2 1 5 11 10 8 5 5 4 3 13 14 11 9 4 10 7 8 8 11 12 8 12 11 12 17 20 21 19 17 16 17 17 19 21 19 22 24 23 20 19 19 12 10 8 11 18 15 11 6 6 6 5 7 8 7 8
2 3 4 7 9 2 10 7 7 9 4 2 4 6 4 9 11 9 9 3 2 2 3 10 5 7 3 3 5 2 2 1 1 3 4 0 2 3 3 5 7 4 7 13 10 11 11 9 10 9 11 11 12 16 18 14 13 18 22 20 19 19 21 22 25 26 25 23 22 21 23 21 21 9 11 12 16 18 19 16 10 9 8 7 9 7 7 7
Wind_Direction
229 232 235 234 236 238 239 242 246 244 241 240 240 238 236 233 223 221 226 225 230 224 217 212 207 206 197 188 187 184 143 164 171 196 207 218 192 213 121 185 232 183 169 129 103 125 205 185 169 289 69 118 255 119 254 44 43 70 151 127 214 194 152 208 169 189 198 128 236 185 204 131 167 172 212 48 35 39 17 78 312 325 358 253 261 244 144 134
226 228 231 234 235 237 238 240 243 245 241 239 239 238 237 232 224 220 224 220 224 227 222 212 203 199 195 183 173 170 155 188 204 213 216 203 210 202 229 246 199 180 138 147 165 187 170 194 196 132 136 121 289 109 84 236 64 112 118 127 227 169 231 158 196 197 131 245 216 192 177 166 202 144 220 119 259 86 130 301 5 324 321 15 76 139 139 142
226 226 228 231 234 236 237 238 241 244 242 239 237 237 236 232 223 221 223 223 220 224 224 212 198 197 196 171 158 162 142 253 261 227 224 214 202 190 210 229 211 186 180 172 201 178 182 187 160 113 33 97 331 158 97 208 125 226 124 209 237 204 217 188 178 210 202 150 166 162 213 169 201 142 140 175 180 291 194 195 323 257 243 202 137 152 149 154
225 224 226 229 232 235 236 238 239 240 241 239 236 236 235 232 225 216 226 221 217 218 223 214 198 198 199 167 145 149 147 200 241 234 222 200 184 192 201 215 207 200 192 302 167 166 106 94 130 123 106 112 277 46 139 222 133 244 111 191 230 204 200 228 176 208 215 171 163 145 92 166 247 197 148 161 124 253 259 239 178 199 206 175 169 163 158 163
222 223 224 226 229 234 236 237 238 239 241 239 235 234 232 230 226 215 219 229 221 216 218 216 204 199 191 161 144 140 119 260 236 192 201 181 186 196 198 211 199 184 186 123 88 82 131 143 140 61 99 188 32 57 245 189 160 112 207 199 199 122 192 245 192 150 148 177 119 135 134 206 90 79 133 155 174 214 213 220 220 205 166 157 166 177 169 173
219 221 222 223 225 230 235 236 237 238 240 240 235 233 229 229 222 217 214 225 226 217 215 215 203 201 180 154 135 162 151 227 154 190 179 169 187 190 195 203 193 162 139 136 157 145 131 135 128 160 154 115 190 171 255 163 141 200 284 233 227 209 184 263 182 193 144 126 136 148 199 110 150 202 192 180 196 234 227 207 201 189 178 174 160 158 174 178
216 218 221 222 224 227 231 234 235 236 238 240 235 233 229 226 223 217 216 224 227 218 216 214 206 192 184 151 149 177 202 236 82 292 168 169 184 189 192 195 169 147 154 153 155 150 173 163 157 186 145 161 228 204 222 160 193 151 214 199 241 179 203 182 214 129 194 131 189 188 107 150 156 203 154 196 240 236 277 263 194 165 134 140 153 179 178 186
214 216 217 220 222 224 229 233 234 234 235 240 237 232 228 225 220 218 213 221 227 219 213 211 208 198 166 150 152 213 212 230 224 19 173 174 174 183 185 172 156 154 167 184 166 178 157 170 180 141 164 174 208 184 190 130 141 178 237 194 260 148 235 225 229 148 187 183 139 117 134 216 175 183 119 233 239 252 274 53 128 135 146 165 170 181 189 191
215 214 216 217 220 221 226 232 234 235 234 237 237 231 232 222 223 220 211 214 224 222 210 204 203 206 181 170 182 183 236 215 187 122 183 181 171 175 165 166 164 165 174 172 186 174 158 206 176 178 208 187 213 175 208 148 263 198 205 147 171 228 252 222 179 229 214 130 144 119 216 259 225 123 229 230 241 233 99 108 136 139 156 177 190 188 187 193
213 214 215 216 219 218 222 228 231 234 234 236 236 232 233 225 220 218 209 211 223 224 214 203 194 205 172 175 184 202 227 129 191 143 179 188 172 158 177 169 164 164 160 192 164 162 185 187 178 185 130 203 132 200 171 202 228 202 152 163 174 241 297 29 197 221 221 246 188 172 226 238 15 153 262 260 226 110 113 129 162 155 176 188 191 197 202 198
213 214 214 214 217 218 219 226 228 230 233 234 235 231 232 230 220 216 208 208 217 221 216 203 189 188 194 187 186 213 106 149 192 163 165 174 167 163 178 170 170 166 171 171 191 180 181 161 163 107 30 218 143 234 155 221 120 143 177 173 242 285 329 45 315 265 69 274 189 186 222 322 301 77 226 211 217 160 148 163 175 187 186 193 198 197 202 208
213 213 214 213 214 217 219 221 227 228 231 232 235 230 231 231 222 216 209 205 215 219 213 206 194 198 215 229 204 219 143 139 119 205 159 169 177 177 173 170 170 174 171 176 200 198 174 163 139 161 190 132 193 102 243 231 164 211 136 157 244 268 283 227 204 219 153 251 147 148 347 275 207 232 212 215 150 172 171 177 190 195 202 202 202 204 204 212
212 213 214 213 213 216 216 219 225 227 230 229 232 227 228 230 224 217 208 204 211 216 210 206 200 204 213 230 230 153 184 120 134 108 145 186 170 170 157 174 176 175 179 174 184 186 178 155 155 173 260 139 174 155 241 118 163 93 49 142 322 117 280 242 127 100 148 248 154 137 247 230 231 236 155 198 156 161 180 196 201 205 203 205 204 207 215 217
210 214 214 213 214 216 217 218 223 227 229 228 228 224 220 228 223 219 209 207 212 212 204 204 201 208 219 241 17 163 176 114 110 134 186 176 155 153 94 66 86 97 76 100 73 53 106 186 148 151 97 122 184 284 69 9 60 184 218 72 203 135 248 279 177 154 159 229 172 108 238 264 248 261 232 219 169 168 203 211 205 209 209 207 206 209 214 216
212 212 213 214 214 215 217 219 222 226 228 227 225 223 216 221 220 214 207 208 217 205 200 197 204 204 223 257 88 285 98 118 154 187 171 171 159 113 128 106 93 104 119 109 115 49 46 83 101 140 194 253 83 110 40 93 334 161 126 225 17 186 277 292 242 161 186 256 156 131 256 251 265 256 238 221 189 187 212 214 213 211 212 209 209 213 217 220
212 213 214 216 214 214 216 218 222 226 227 227 225 221 213 213 221 214 202 205 214 205 189 195 203 210 322 245 198 108 176 167 188 176 184 164 172 167 135 109 111 99 100 74 108 95 52 78 128 183 108 58 161 146 112 116 255 246 200 179 199 164 224 353 210 221 192 125 243 178 231 332 300 272 314 305 184 199 219 224 222 222 219 216 214 214 219 228
210 212 214 215 216 213 215 216 217 225 227 226 222 221 207 208 215 215 196 195 214 209 186 195 194 193 225 26 106 168 180 211 165 167 167 194 166 145 127 120 111 105 86 62 79 84 8 73 292 91 23 151 144 135 154 216 216 211 200 193 200 189 176 218 310 232 237 159 203 237 233 236 234 247 269 360 157 171 219 237 238 233 230 223 223 223 222 223
209 211 213 216 217 215 213 214 215 220 224 226 218 208 212 211 211 208 208 194 185 217 207 244 184 179 253 216 203 190 172 175 151 166 170 181 161 153 155 131 117 116 106 80 339 148 244 116 39 194 138 158 161 179 195 213 198 175 185 189 252 32 190 198 173 251 147 265 202 208 235 247 244 273 280 232 144 175 222 225 230 228 229 227 218 220 226 226
210 211 212 215 217 216 215 215 214 217 220 221 215 209 209 207 218 241 209 192 165 188 200 194 182 210 181 207 226 203 176 166 134 145 173 151 180 161 142 118 133 130 141 150 245 145 129 72 49 167 196 189 196 195 208 192 163 198 183 186 147 191 209 205 211 234 169 190 234 208 227 244 247 256 257 255 195 213 239 245 260 261 248 242 227 224 223 226
209 209 213 216 217 216 215 216 215 214 215 215 199 194 161 172 164 202 201 204 211 204 341 151 206 235 264 99 189 86 70 127 134 168 156 160 150 163 147 144 142 142 142 180 153 190 147 173 190 202 204 199 198 203 199 181 168 122 146 172 210 210 244 262 223 221 201 167 221 222 236 249 253 244 252 253 208 235 256 256 244 244 240 236 237 227 227 228
209 211 211 214 215 215 215 217 215 212 208 198 186 185 199 173 172 197 166 236 210 214 239 226 196 206 224 120 130 147 135 228 179 154 175 152 147 148 175 146 157 162 183 160 154 129 174 189 209 211 195 188 190 179 144 132 148 159 171 185 215 200 222 203 196 212 182 171 267 234 256 258 249 254 257 265 203 238 230 242 244 240 236 234 231 234 231 233
210 211 211 212 213 215 214 217 216 209 203 196 196 206 206 193 190 116 148 192 212 206 213 182 115 219 64 283 172 150 129 147 203 161 138 163 157 167 195 172 168 180 161 124 118 155 192 206 212 199 172 158 151 177 164 167 171 169 178 190 209 227 62 314 221 68 184 140 259 204 246 252 251 257 264 253 237 236 225 227 236 233 238 233 229 233 239 241
209 213 212 212 213 214 213 216 217 206 196 202 206 201 213 190 231 145 102 32 213 199 203 197 214 195 189 41 206 120 183 179 167 170 164 150 172 184 167 181 183 155 149 154 162 160 191 217 213 168 179 157 170 176 172 168 165 176 167 158 217 135 158 245 262 135 195 168 221 242 253 271 274 262 258 251 234 235 236 230 237 228 235 234 228 221 226 233
209 211 212 212 213 215 213 214 213 205 205 204 205 210 198 178 145 170 142 193 201 204 209 224 203 218 194 162 189 173 192 184 159 171 185 159 170 159 175 178 173 153 173 180 181 183 195 231 168 178 177 166 172 176 189 175 190 217 187 194 158 171 200 167 222 102 139 313 85 19 306 284 231 261 265 258 220 230 244 242 243 244 231 238 245 244 229 232
209 211 211 211 214 212 211 205 209 208 199 198 211 209 190 166 161 193 151 102 230 229 147 244 194 262 193 32 190 184 191 209 199 165 171 168 148 135 207 171 162 183 176 188 187 194 199 164 149 175 170 175 166 182 194 184 203 195 232 193 156 139 160 155 116 128 55 283 242 134 331 266 226 225 240 252 80 232 235 233 240 239 231 226 237 241 241 237
210 212 213 212 211 210 200 199 212 199 196 203 203 187 201 177 175 183 135 163 224 193 147 212 109 237 112 231 66 183 145 216 156 191 174 176 157 174 148 200 175 183 189 183 186 209 179 201 159 158 166 173 182 192 191 173 198 199 212 152 136 142 139 147 162 121 231 213 282 159 206 270 326 245 245 255 244 251 263 237 246 242 241 229 229 234 236 234
210 212 211 212 211 199 197 214 166 178 198 210 194 168 204 181 157 130 144 223 237 170 157 96 178 209 152 174 157 132 191 176 84 158 182 186 163 11 157 159 182 202 171 148 208 217 140 173 149 163 169 174 186 199 186 180 179 216 119 153 153 101 107 166 164 192 220 271 327 110 173 236 283 251 218 225 227 261 269 258 248 239 235 234 232 231 234 236
211 212 212 213 212 201 213 158 154 194 208 182 166 171 173 244 121 52 215 205 237 113 181 181 226 353 183 165 171 188 327 118 163 191 190 183 152 118 161 174 182 169 163 164 206 176 174 173 166 168 171 177 196 200 165 171 175 193 149 149 153 130 111 122 127 178 290 1 266 167 32 269 246 266 327 120 254 266 258 254 249 236 230 234 236 237 239 239
212 213 212 214 212 208 201 205 186 204 197 142 163 163 160 216 162 166 182 223 126 123 75 165 103 104 101 135 166 226 265 183 184 148 180 176 241 130 169 191 185 169 173 190 201 159 170 174 171 167 170 193 180 120 138 164 190 19 87 81 81 77 65 62 93 97 331 118 240 187 184 224 265 245 202 349 211 246 246 243 246 241 232 230 237 244 240 240
214 213 213 212 212 212 202 203 229 197 133 155 155 142 145 137 123 187 184 225 97 187 172 120 174 168 135 146 178 208 226 226 356 157 166 170 191 32 26 83 170 161 179 199 84 203 137 170 150 161 188 168 113 137 156 160 89 129 98 92 60 45 56 37 65 89 55 265 239 175 199 195 278 242 214 168 209 218 247 274 252 260 255 251 233 231 236 236
213 213 214 209 211 198 182 214 198 149 147 153 144 137 132 176 187 159 214 180 74 129 106 169 177 135 175 171 180 206 209 218 278 164 152 157 185 165 121 142 58 164 179 186 152 165 137 126 157 206 152 121 116 89 78 128 149 126 107 116 92 7 18 47 343 52 163 257 197 187 179 180 225 268 175 211 216 205 207 238 237 232 240 245 245 236 238 237
216 215 213 212 197 151 197 204 173 163 153 150 139 140 153 180 181 198 184 137 189 189 173 136 173 171 179 179 205 185 188 174 227 186 163 173 165 174 178 177 150 164 196 173 171 129 153 174 171 155 160 138 142 127 64 136 166 152 128 129 162 186 133 244 62 226 205 229 320 4 147 120 239 228 239 236 250 254 234 228 223 219 233 239 249 251 249 250
218 217 215 212 185 196 206 165 141 158 152 149 150 156 177 194 208 162 162 162 274 164 200 152 165 177 177 175 214 191 191 203 182 239 171 177 172 188 177 179 175 179 168 170 158 158 195 178 170 138 137 172 148 154 144 157 184 160 170 162 175 161 189 211 198 238 299 296 275 128 25 254 269 309 223 241 239 232 237 235 234 230 238 240 247 258 260 263
218 216 216 208 199 200 189 164 156 150 156 157 156 164 196 201 207 164 160 242 211 338 145 171 160 169 170 192 202 176 199 217 164 206 205 173 182 178 186 186 176 187 10 162 175 168 148 183 197 153 192 166 173 174 171 167 173 190 176 179 196 184 185 208 178 202 212 183 164 255 130 232 153 252 306 245 250 266 253 253 249 240 241 243 252 266 274 272
214 212 207 204 203 198 158 165 159 157 156 161 171 180 191 196 159 179 175 180 288 160 162 146 164 173 185 201 204 197 188 204 177 199 233 185 183 182 174 177 182 173 137 160 226 178 193 196 175 180 151 168 179 173 163 131 143 192 172 51 224 220 108 192 215 128 137 148 206 217 209 194 186 278 284 228 253 263 251 255 241 258 251 255 264 254 252 259
212 213 189 197 195 183 164 169 165 157 161 167 173 195 194 180 189 172 186 133 194 172 151 159 159 173 186 200 203 198 204 212 178 189 229 234 187 181 182 175 178 176 161 177 151 168 189 227 157 166 151 173 181 153 171 144 185 169 142 207 200 74 100 80 23 17 65 45 250 149 299 282 307 288 262 279 255 253 240 240 235 241 245 244 248 245 246 246
194 143 189 193 201 169 169 165 169 160 167 172 180 193 185 266 210 171 152 167 187 147 159 165 188 167 181 198 192 189 197 199 183 177 216 187 226 191 180 194 181 176 186 160 182 250 175 186 173 160 177 191 179 164 161 181 129 127 205 201 86 103 107 133 200 354 44 203 254 124 226 258 54 267 193 222 242 253 261 255 234 230 215 233 243 241 237 239
161 166 200 194 178 167 163 166 168 166 168 177 202 176 26 142 230 145 303 139 152 174 156 170 154 180 186 182 198 184 179 189 173 168 216 192 295 185 181 180 183 190 182 186 158 192 114 51 320 203 178 167 116 109 150 228 357 187 186 152 163 206 228 258 114 198 174 232 264 285 274 279 207 236 120 235 227 243 242 248 276 260 229 233 240 248 249 251
125 149 218 189 155 163 162 160 171 168 169 188 194 192 217 129 111 293 258 237 118 150 165 181 131 253 167 197 180 185 178 197 174 189 172 188 196 200 190 159 180 190 193 177 197 185 186 152 153 298 160 147 153 159 190 187 291 5 72 168 164 122 233 170 204 139 144 250 356 276 86 248 191 223 168 242 230 233 257 252 231 239 232 225 229 227 235 235
128 104 247 240 163 158 159 162 169 178 180 191 191 192 137 135 196 321 337 181 148 151 206 147 317 160 198 203 180 186 191 193 194 193 191 150 175 166 193 187 172 186 190 196 198 193 185 148 169 151 141 142 183 190 193 178 173 145 163 181 215 214 316 134 208 170 159 214 228 263 287 256 230 182 178 212 238 247 224 235 229 237 234 232 230 224 220 220
146 120 205 227 168 150 155 162 174 182 180 16 45 129 133 159 133 21 294 307 112 22 152 137 155 176 161 151 219 180 180 199 201 197 190 166 177 169 209 189 166 182 184 199 207 192 113 210 173 130 169 186 194 195 197 189 180 180 179 191 187 179 177 183 222 63 154 170 227 182 249 259 269 195 189 197 210 228 242 246 254 219 232 231 232 236 221 214
152 176 204 180 188 156 152 134 114 102 140 171 164 162 131 118 72 147 350 302 69 126 6 92 22 115 166 206 164 180 174 196 202 199 192 189 194 203 181 189 188 176 174 193 190 207 155 148 124 169 186 187 192 208 30 197 201 206 194 197 179 175 172 201 209 211 73 243 112 189 4 268 169 172 205 197 220 232 249 295 275 217 227 235 236 240 234 218
181 143 35 145 237 162 144 146 119 127 108 107 97 48 69 76 112 192 143 296 79 80 72 70 189 117 277 142 284 164 176 195 192 206 145 187 195 201 171 185 174 180 186 190 187 214 70 109 109 35 31 332 350 157 88 42 181 209 237 60 158 187 194 203 210 165 191 195 231 267 265 261 227 230 212 209 247 314 313 232 243 240 245 254 257 248 242 238
164 128 74 341 330 209 154 165 153 132 117 118 93 103 54 121 114 131 112 260 118 73 115 154 25 1 149 122 102 194 177 196 215 196 200 169 213 186 177 189 174 183 181 190 184 184 179 227 156 150 159 167 33 17 5 346 175 205 196 199 188 181 194 189 89 119 188 201 212 190 241 261 221 201 234 279 304 289 275 263 205 247 257 261 257 244 237 244
116 52 63 114 360 164 182 258 155 137 137 134 127 130 130 63 47 56 125 110 37 90 101 28 184 144 86 112 94 24 322 223 149 223 132 180 207 179 202 186 186 190 203 184 191 162 203 165 166 173 166 163 177 185 193 183 201 191 196 189 195 185 182 138 206 167 221 211 188 210 241 249 45 71 325 280 302 294 266 263 267 211 222 235 247 257 235 218
171 131 169 89 36 31 350 267 111 137 136 133 112 132 103 113 60 36 67 78 45 95 61 121 54 96 105 121 85 35 307 328 228 166 163 181 196 239 188 190 191 196 198 195 164 162 171 186 206 190 185 191 194 197 194 182 175 189 189 188 193 194 190 193 196 197 211 212 211 212 222 238 76 205 274 267 265 252 281 300 282 238 234 242 256 258 240 211
104 133 158 144 125 38 139 132 129 139 142 150 123 158 101 111 140 69 321 111 293 130 96 61 175 130 192 133 136 134 163 339 314 185 184 168 222 205 273 190 194 200 193 190 151 165 105 183 206 201 218 217 204 47 94 162 182 197 191 203 198 196 193 195 197 213 199 211 230 212 227 235 222 323 285 279 276 281 276 275 284 288 261 239 235 251 272 261
121 156 58 203 168 156 134 149 140 123 121 102 93 76 129 125 116 123 39 44 114 347 103 354 50 351 165 169 148 153 154 125 331 221 96 356 117 346 117 249 198 195 191 191 183 186 180 204 207 203 218 217 160 141 155 178 191 195 201 198 201 200 197 201 210 219 209 219 228 224 226 230 229 239 257 244 226 224 229 237 244 255 280 277 282 258 248 242
109 116 106 344 86 66 132 138 133 128 122 118 98 112 129 120 111 172 154 133 46 24 352 148 187 185 176 177 152 121 158 140 263 264 209 169 171 133 148 92 245 203 192 156 195 188 170 223 207 202 214 213 185 159 165 180 194 206 206 207 204 199 206 211 220 223 218 219 226 240 234 231 223 203 231 249 221 215 234 255 329 299 258 250 257 256 244 241
158 154 140 54 84 106 117 121 115 120 118 126 111 144 129 132 120 121 58 109 124 119 210 102 137 108 131 153 161 168 198 179 161 176 233 157 174 179 146 198 128 201 196 183 171 227 206 213 201 193 212 217 195 182 178 184 185 209 207 207 205 204 209 215 223 232 238 253 260 267 262 261 239 190 211 222 251 205 122 245 205 236 257 242 223 237 240 238
149 351 140 125 109 118 114 126 128 126 111 68 99 154 109 142 130 142 96 19 118 149 168 151 140 113 60 114 111 180 352 149 12 204 173 161 197 217 159 231 195 176 193 178 178 194 211 220 192 197 204 216 192 193 200 188 191 203 205 200 193 189 203 209 219 221 213 220 226 234 242 243 247 203 193 202 214 245 241 225 219 254 244 215 223 236 238 241
55 15 51 107 91 119 132 128 122 115 114 196 124 154 137 172 143 143 91 56 38 63 124 126 131 114 106 143 180 193 156 62 138 349 160 255 253 152 125 159 155 164 175 190 169 185 193 202 206 185 210 214 196 196 202 196 199 212 208 194 188 198 206 211 221 219 217 211 218 224 237 235 234 128 172 204 201 214 231 249 238 227 232 235 246 245 250 258